Location: *
(45.9500°N, 9.0833°E)
Time: 20:27:11
(UTC+00:00)

Tiros 1 - Pass Details

Date: 23 June 2021
Orbit: 630 x 664 km, 48.4° (Epoch: 05 August)

Event Time Altitude Azimuth Distance (km) Brightness Sun altitude
Rises 14:13:04 0° 288° (WNW) 2,948 11.0 49.6°
Reaches altitude 10° 14:15:34 10° 279° (W) 2,042 10.5 49.2°
Maximum altitude 14:19:45 32° 216° (SW) 1,109 9.6 48.5°
Drops below altitude 10° 14:23:57 10° 154° (SSE) 2,053 9.8 47.8°
Sets 14:26:28 0° 144° (SE) 2,966 10.4 47.4°
